period_start,C,m1,H,J0,J1,J2,J3,J4,J5,JA,JB,JC,JD,JJ,JK,JN,#
2014-06-07 00:01:45,0.07,1.05,0.00,29.18,33.29,35.51,9.23,38.38,1016.63,2013.97,3023.77,2974.06,3230.98,499.80,486.46,44.24,0000 0000 0000 0000 000000
2014-06-07 00:06:46,0.05,1.05,0.00,29.22,33.31,35.55,9.31,38.46,1016.64,2013.84,3022.80,2973.18,3230.06,500.07,486.72,44.28,0000 0000 0000 0000 000000
2014-06-07 00:11:47,0.01,1.05,0.00,29.25,33.34,35.58,9.30,38.23,1016.66,2013.44,3021.86,2972.49,3229.22,499.99,486.49,44.32,0000 0000 0000 0000 000000
2014-06-07 00:16:48,0.01,1.06,0.00,29.29,33.37,35.61,9.30,38.10,1016.64,2013.11,3021.00,2971.90,3228.47,499.92,486.34,44.36,0000 0000 0000 0000 000000
2014-06-07 00:21:50,0.05,1.06,0.00,29.33,33.40,35.64,9.26,38.27,1016.63,2013.03,3020.15,2971.13,3227.76,499.74,486.02,44.40,0000 0000 0000 0000 000000
2014-06-07 00:26:51,0.06,1.06,0.00,29.36,33.43,35.67,9.30,38.33,1016.63,2013.00,3019.33,2970.48,3227.02,499.78,486.19,44.45,0000 0000 0000 0000 000000
2014-06-07 00:31:52,0.05,1.06,0.00,29.40,33.46,35.70,9.32,38.32,1016.62,2013.00,3018.50,2969.86,3226.21,499.65,486.04,44.49,0000 0000 0000 0000 000000
2014-06-07 00:36:53,0.04,1.06,0.00,29.44,33.49,35.73,9.35,38.15,1016.62,2012.98,3017.87,2969.09,3225.58,499.63,485.78,44.53,0000 0000 0000 0000 000000
2014-06-07 00:41:55,0.02,1.07,0.00,29.47,33.52,35.77,9.35,38.44,1016.62,2012.85,3017.08,2968.74,3224.99,499.99,486.03,44.57,0000 0000 0000 0000 000000
2014-06-07 00:46:56,0.01,1.07,0.00,29.51,33.55,35.79,9.34,38.48,1016.63,2012.53,3016.51,2968.05,3224.32,499.79,485.83,44.61,0000 0000 0000 0000 000000
2014-06-07 00:51:57,-0.01,1.07,0.00,29.55,33.58,35.82,9.39,38.38,1016.62,2012.24,3016.00,2967.81,3223.97,500.33,486.15,44.65,0000 0000 0000 0000 000000
2014-06-07 00:56:58,0.04,1.07,0.00,29.58,33.61,35.86,9.36,38.38,1016.62,2012.03,3015.35,2967.09,3223.31,500.03,485.91,44.70,0000 0000 0000 0000 000000
2014-06-07 01:01:59,0.00,1.07,0.00,29.62,33.64,35.88,9.35,38.33,1016.62,2012.00,3014.97,2966.93,3222.98,499.58,485.46,44.74,0000 0000 0000 0000 000000
2014-06-07 01:07:00,0.06,1.07,0.00,29.66,33.66,35.91,9.43,38.50,1016.62,2012.00,3014.36,2966.24,3222.55,500.35,486.01,44.78,0000 0000 0000 0000 000000
2014-06-07 01:12:02,0.01,1.07,0.00,29.69,33.70,35.95,9.33,38.46,1016.62,2012.00,3014.01,2966.01,3222.02,499.55,485.18,44.82,0000 0000 0000 0000 000000
2014-06-07 01:17:03,0.03,1.07,0.00,29.72,33.73,35.98,9.30,38.36,1016.61,2011.94,3013.58,2965.72,3221.73,499.79,485.50,44.86,0000 0000 0000 0000 000000
2014-06-07 01:22:04,0.02,1.07,0.00,29.76,33.76,36.02,9.38,38.48,1016.62,2011.81,3013.01,2965.05,3221.05,500.09,485.73,44.90,0000 0000 0000 0000 000000
2014-06-07 01:27:05,-0.03,1.07,0.00,29.79,33.79,36.05,9.33,38.32,1016.62,2011.59,3012.96,2965.00,3220.99,499.99,485.60,44.95,0000 0000 0000 0000 000000
2014-06-07 01:32:06,0.01,1.07,0.00,29.82,33.82,36.08,9.34,38.27,1016.62,2011.09,3012.16,2964.56,3220.32,500.22,485.78,44.99,0000 0000 0000 0000 000000
2014-06-07 01:37:07,0.01,1.07,0.00,29.86,33.86,36.12,9.41,38.45,1016.61,2011.01,3011.97,2964.02,3220.01,500.35,485.68,45.03,0000 0000 0000 0000 000000
2014-06-07 01:42:08,0.02,1.07,0.00,29.90,33.89,36.16,9.32,38.36,1016.61,2011.00,3011.55,2963.97,3219.75,500.32,485.68,45.07,0000 0000 0000 0000 000000
2014-06-07 01:47:09,0.04,1.07,0.00,29.93,33.92,36.19,9.28,38.22,1016.58,2010.99,3011.01,2963.30,3219.06,500.11,485.50,45.11,0000 0000 0000 0000 000000
2014-06-07 01:52:10,0.01,1.08,0.00,29.96,33.96,36.22,9.31,38.33,1016.49,2010.94,3010.71,2963.00,3218.97,499.73,484.91,45.15,0000 0000 0000 0000 000000
2014-06-07 01:57:11,0.01,1.08,0.00,29.99,33.99,36.26,9.28,38.29,1016.52,2010.86,3010.08,2962.92,3218.44,499.71,484.94,45.19,0000 0000 0000 0000 000000
2014-06-07 02:02:12,-0.01,1.08,0.00,30.04,34.02,36.29,9.34,38.33,1016.47,2010.48,3009.91,2962.24,3218.03,499.94,485.03,45.24,0000 0000 0000 0000 000000
2014-06-07 02:07:14,-0.01,1.07,0.00,30.06,34.06,36.33,9.39,38.32,1016.48,2010.14,3009.31,2962.00,3217.84,499.83,484.92,45.28,0000 0000 0000 0000 000000
2014-06-07 02:12:15,0.02,1.08,0.00,30.10,34.09,36.36,9.31,38.24,1016.48,2010.02,3008.95,2961.71,3217.13,499.84,484.82,45.32,0000 0000 0000 0000 000000
2014-06-07 02:17:16,0.05,1.08,0.00,30.12,34.12,36.40,9.30,38.06,1016.48,2010.00,3008.16,2960.98,3216.53,500.20,485.06,45.36,0000 0000 0000 0000 000000
2014-06-07 02:22:17,0.08,1.08,0.00,30.15,34.16,36.43,9.29,38.12,1016.50,2010.00,3007.24,2959.98,3215.39,500.27,485.02,45.40,0000 0000 0000 0000 000000
2014-06-07 02:27:18,0.06,1.08,0.00,30.18,34.19,36.46,9.36,38.05,1016.50,2009.97,3006.27,2959.06,3214.53,500.07,484.83,45.44,0000 0000 0000 0000 000000
2014-06-07 02:32:19,-0.01,1.08,0.00,30.21,34.23,36.49,9.25,38.10,1016.54,2009.78,3005.94,2958.71,3214.00,499.57,484.44,45.48,0000 0000 0000 0000 000000
2014-06-07 02:37:20,0.01,1.08,0.00,30.25,34.26,36.53,9.32,37.99,1016.55,2009.41,3005.34,2958.09,3213.79,499.79,484.78,45.53,0000 0000 0000 0000 000000
2014-06-07 02:42:21,-0.02,1.08,0.00,30.28,34.30,36.56,9.27,38.17,1016.53,2009.13,3005.01,2957.99,3213.07,499.46,484.17,45.57,0000 0000 0000 0000 000000
2014-06-07 02:47:22,0.02,1.08,0.00,30.31,34.33,36.59,9.37,38.17,1016.46,2009.01,3004.68,2957.62,3212.95,500.03,484.79,45.61,0000 0000 0000 0000 000000
2014-06-07 02:52:23,0.04,1.09,0.00,30.34,34.36,36.62,9.25,38.16,1016.46,2009.00,3004.07,2957.03,3212.27,499.89,484.49,45.65,0000 0000 0000 0000 000000
2014-06-07 02:57:24,0.01,1.09,0.00,30.37,34.40,36.65,9.38,38.22,1016.51,2008.99,3003.76,2956.86,3211.94,500.53,484.91,45.69,0000 0000 0000 0000 000000
2014-06-07 03:02:26,0.05,1.09,0.00,30.40,34.43,36.68,9.30,38.02,1016.52,2008.92,3003.03,2956.07,3211.14,499.76,484.32,45.73,0000 0000 0000 0000 000000
2014-06-07 03:07:27,-0.01,1.09,0.00,30.42,34.46,36.72,9.31,38.16,1016.44,2008.53,3002.45,2955.73,3210.77,499.76,484.29,45.78,0000 0000 0000 0000 000000
2014-06-07 03:12:28,0.00,1.09,0.00,30.45,34.49,36.75,9.29,38.01,1016.23,2008.19,3001.92,2955.05,3210.05,499.70,484.21,45.82,0000 0000 0000 0000 000000
2014-06-07 03:17:29,0.01,1.09,0.00,30.48,34.52,36.78,9.31,38.09,1016.14,2008.02,3001.20,2954.91,3209.90,500.00,484.16,45.86,0000 0000 0000 0000 000000
2014-06-07 03:22:30,0.04,1.09,0.00,30.51,34.56,36.81,9.24,37.96,1016.14,2008.00,3000.99,2954.30,3209.18,499.69,483.84,45.90,0000 0000 0000 0000 000000
2014-06-07 03:27:31,0.01,1.09,0.00,30.55,34.58,36.83,9.24,38.01,1016.14,2008.00,3000.79,2954.01,3209.00,499.94,484.03,45.94,0000 0000 0000 0000 000000
2014-06-07 03:32:33,0.03,1.09,0.00,30.57,34.61,36.87,9.36,38.02,1016.14,2008.00,3000.09,2953.88,3208.62,500.07,484.18,45.98,0000 0000 0000 0000 000000
2014-06-07 03:37:34,0.02,1.09,0.00,30.59,34.64,36.90,9.34,37.95,1016.13,2007.92,2999.98,2953.26,3208.06,499.96,483.93,46.03,0000 0000 0000 0000 000000
2014-06-07 03:42:35,-0.05,1.09,0.00,30.62,34.67,36.92,9.23,38.06,1016.15,2007.49,2999.72,2953.01,3207.93,499.89,483.71,46.07,0000 0000 0000 0000 000000
2014-06-07 03:47:36,0.00,1.09,0.00,30.65,34.70,36.95,9.31,37.95,1016.16,2007.17,2999.10,2952.97,3207.42,500.10,483.98,46.11,0000 0000 0000 0000 000000
2014-06-07 03:52:37,0.02,1.09,0.00,30.67,34.72,36.98,9.30,38.08,1016.14,2007.08,2998.98,2952.50,3207.04,499.83,483.96,46.15,0000 0000 0000 0000 000000
2014-06-07 03:57:38,0.01,1.09,0.00,30.69,34.75,37.00,9.35,38.22,1016.15,2007.01,2998.62,2952.03,3206.99,500.36,484.15,46.19,0000 0000 0000 0000 000000
2014-06-07 04:02:39,0.02,1.09,0.00,30.72,34.78,37.03,9.27,38.12,1016.14,2007.00,2998.05,2951.99,3206.44,499.71,483.62,46.23,0000 0000 0000 0000 000000
2014-06-07 04:07:40,0.01,1.10,0.00,30.73,34.81,37.06,9.34,37.98,1016.14,2006.99,2997.99,2951.75,3206.02,500.04,484.00,46.27,0000 0000 0000 0000 000000
2014-06-07 04:12:41,0.03,1.10,0.00,30.76,34.83,37.09,9.32,38.05,1016.15,2006.94,2997.46,2951.09,3205.96,499.76,483.57,46.32,0000 0000 0000 0000 000000
2014-06-07 04:17:42,0.01,1.10,0.00,30.79,34.86,37.11,9.28,38.17,1016.14,2006.85,2997.01,2951.00,3205.54,500.20,483.81,46.36,0000 0000 0000 0000 000000
2014-06-07 04:22:44,0.01,1.10,0.00,30.80,34.89,37.14,9.29,38.14,1016.14,2006.76,2996.98,2950.98,3205.04,500.05,483.74,46.40,0000 0000 0000 0000 000000
2014-06-07 04:27:45,-0.00,1.10,0.00,30.81,34.91,37.17,9.25,37.92,1016.14,2006.66,2996.65,2950.68,3205.00,499.97,483.91,46.44,0000 0000 0000 0000 000000
2014-06-07 04:32:46,-0.01,1.10,0.00,30.83,34.94,37.19,9.28,38.08,1016.14,2006.14,2996.02,2950.04,3204.64,500.17,483.85,46.48,0000 0000 0000 0000 000000
2014-06-07 04:37:47,0.00,1.10,0.00,30.85,34.96,37.22,9.28,38.14,1016.13,2006.02,2995.93,2949.98,3204.05,500.28,483.88,46.52,0000 0000 0000 0000 000000
2014-06-07 04:42:48,0.03,1.10,0.00,30.86,34.98,37.24,9.26,38.00,1016.13,2006.00,2995.46,2949.64,3203.98,499.85,483.54,46.57,0000 0000 0000 0000 000000
2014-06-07 04:47:49,0.03,1.10,0.00,30.88,35.01,37.26,9.24,38.20,1016.13,2006.00,2995.02,2949.07,3203.59,499.78,483.38,46.61,0000 0000 0000 0000 000000
2014-06-07 04:52:50,0.00,1.10,0.00,30.90,35.03,37.28,9.33,38.26,1016.13,2005.98,2994.98,2949.00,3203.04,500.01,483.67,46.65,0000 0000 0000 0000 000000
2014-06-07 04:57:52,0.00,1.10,0.00,30.91,35.05,37.30,9.28,38.31,1016.13,2005.87,2994.52,2948.83,3202.99,499.97,483.67,46.69,0000 0000 0000 0000 000000
2014-06-07 05:02:53,0.01,1.10,0.00,30.92,35.07,37.33,9.23,38.09,1016.13,2005.64,2994.06,2948.31,3202.70,499.38,482.97,46.73,0000 0000 0000 0000 000000
2014-06-07 05:07:54,-0.03,1.10,0.00,30.94,35.10,37.35,9.23,38.37,1016.13,2005.16,2994.00,2948.02,3202.08,499.49,483.04,46.77,0000 0000 0000 0000 000000
2014-06-07 05:12:55,-0.00,1.10,0.00,30.95,35.11,37.37,9.31,38.29,1016.13,2005.06,2993.92,2948.00,3202.00,500.08,483.48,46.82,0000 0000 0000 0000 000000
2014-06-07 05:17:56,0.01,1.10,0.00,30.97,35.14,37.39,9.29,38.21,1016.13,2005.01,2993.36,2947.91,3201.94,499.92,483.41,46.86,0000 0000 0000 0000 000000
2014-06-07 05:22:57,0.02,1.10,0.00,30.97,35.16,37.41,9.24,38.25,1016.13,2005.00,2993.09,2947.62,3201.58,499.94,483.26,46.90,0000 0000 0000 0000 000000
2014-06-07 05:27:58,0.02,1.10,0.00,31.00,35.17,37.43,9.26,38.33,1016.13,2005.00,2993.00,2947.08,3201.06,499.62,483.11,46.94,0000 0000 0000 0000 000000
2014-06-07 05:32:59,0.00,1.10,0.00,31.00,35.20,37.45,9.29,38.17,1016.13,2005.00,2992.77,2947.00,3200.99,499.85,483.26,46.98,0000 0000 0000 0000 000000
2014-06-07 05:38:00,0.01,1.10,0.00,31.00,35.21,37.46,9.25,38.35,1016.13,2004.97,2992.34,2946.97,3200.86,500.10,483.61,47.02,0000 0000 0000 0000 000000
2014-06-07 05:43:01,0.02,1.10,0.00,31.02,35.23,37.49,9.24,38.41,1016.13,2004.86,2992.03,2946.64,3200.22,499.49,482.88,47.06,0000 0000 0000 0000 000000
2014-06-07 05:48:03,0.01,1.10,0.00,31.02,35.25,37.50,9.37,38.42,1016.12,2004.76,2991.99,2946.08,3200.01,500.46,483.78,47.11,0000 0000 0000 0000 000000
2014-06-07 05:53:04,-0.04,1.10,0.00,31.04,35.27,37.52,9.25,38.40,1016.10,2004.48,2991.85,2946.00,3199.99,499.86,483.39,47.15,0000 0000 0000 0000 000000
2014-06-07 05:58:05,-0.00,1.10,0.00,31.05,35.28,37.53,9.31,38.34,1016.07,2004.14,2991.19,2945.99,3199.68,500.12,483.57,47.19,0000 0000 0000 0000 000000
2014-06-07 06:03:06,0.01,1.10,0.00,31.06,35.30,37.55,9.29,38.38,1016.05,2004.06,2991.01,2945.84,3199.15,499.64,483.05,47.23,0000 0000 0000 0000 000000
2014-06-07 06:08:07,0.01,1.10,0.00,31.07,35.32,37.56,9.30,38.37,1016.03,2004.01,2990.98,2945.31,3199.00,500.21,483.31,47.27,0000 0000 0000 0000 000000
2014-06-07 06:13:09,0.01,1.10,0.00,31.09,35.33,37.58,9.29,38.42,1016.03,2004.00,2990.54,2945.03,3199.00,499.93,483.21,47.31,0000 0000 0000 0000 000000
2014-06-07 06:18:10,0.01,1.10,0.00,31.09,35.35,37.59,9.34,38.28,1016.07,2004.00,2990.04,2945.00,3198.81,499.67,483.03,47.36,0000 0000 0000 0000 000000
2014-06-07 06:23:12,0.01,1.10,0.00,31.10,35.36,37.61,9.28,38.52,1016.09,2003.99,2990.00,2944.95,3198.20,499.66,482.99,47.40,0000 0000 0000 0000 000000
2014-06-07 06:28:12,0.01,1.10,0.00,31.12,35.38,37.62,9.31,38.26,1016.08,2003.98,2989.99,2944.68,3198.01,500.06,483.11,47.44,0000 0000 0000 0000 000000
2014-06-07 06:33:14,0.02,1.11,0.00,31.12,35.40,37.63,9.33,38.32,1016.04,2003.97,2989.78,2944.25,3198.00,499.82,483.03,47.48,0000 0000 0000 0000 000000
2014-06-07 06:38:15,0.01,1.11,0.00,31.13,35.40,37.65,9.30,38.40,1016.08,2003.97,2989.17,2944.02,3197.97,499.56,482.69,47.52,0000 0000 0000 0000 000000
2014-06-07 06:43:16,0.00,1.11,0.00,31.15,35.42,37.66,9.29,38.30,1016.12,2003.94,2989.01,2944.00,3197.76,500.20,483.41,47.56,0000 0000 0000 0000 000000
2014-06-07 06:48:17,-0.01,1.11,0.00,31.17,35.43,37.68,9.20,38.31,1016.13,2003.72,2989.00,2943.99,3197.13,499.79,482.90,47.61,0000 0000 0000 0000 000000
2014-06-07 06:53:18,-0.03,1.11,0.00,31.17,35.45,37.68,9.31,38.41,1016.13,2003.44,2988.90,2943.92,3197.00,499.87,483.07,47.65,0000 0000 0000 0000 000000
2014-06-07 06:58:19,0.01,1.11,0.00,31.18,35.45,37.69,9.33,38.52,1016.12,2003.18,2988.26,2943.47,3196.96,500.41,483.32,47.69,0000 0000 0000 0000 000000
2014-06-07 07:03:20,0.01,1.11,0.00,31.20,35.47,37.71,9.29,38.67,1016.13,2003.11,2988.00,2943.06,3196.81,500.24,483.37,47.73,0000 0000 0000 0000 000000
2014-06-07 07:08:21,0.01,1.11,0.00,31.21,35.48,37.71,9.32,38.45,1016.13,2003.05,2988.00,2943.00,3196.30,500.14,483.20,47.77,0000 0000 0000 0000 000000
2014-06-07 07:13:21,0.00,1.11,0.00,31.22,35.50,37.72,9.30,38.52,1016.13,2003.04,2987.85,2942.99,3196.01,500.12,483.05,47.81,0000 0000 0000 0000 000000
2014-06-07 07:18:23,0.01,1.11,0.00,31.24,35.50,37.75,9.30,38.51,1016.13,2003.00,2987.36,2942.95,3196.00,499.55,482.58,47.86,0000 0000 0000 0000 000000
2014-06-07 07:23:24,0.02,1.11,0.00,31.26,35.52,37.76,9.30,38.59,1016.13,2003.00,2987.05,2942.67,3195.96,499.65,482.62,47.90,0000 0000 0000 0000 000000
2014-06-07 07:28:25,0.03,1.11,0.00,31.27,35.53,37.76,9.37,38.44,1016.13,2003.00,2986.98,2942.11,3195.51,500.33,483.16,47.94,0000 0000 0000 0000 000000
2014-06-07 07:33:26,0.01,1.11,0.00,31.27,35.55,37.77,9.28,38.52,1016.13,2003.00,2986.72,2942.00,3195.03,499.65,482.68,47.98,0000 0000 0000 0000 000000
2014-06-07 07:38:27,0.01,1.11,0.00,31.29,35.55,37.79,9.29,38.44,1016.13,2003.00,2986.12,2941.99,3195.00,500.10,482.98,48.02,0000 0000 0000 0000 000000
2014-06-07 07:43:28,0.00,1.11,0.00,31.31,35.57,37.79,9.29,38.33,1016.13,2002.99,2986.00,2941.82,3194.91,500.07,482.99,48.06,0000 0000 0000 0000 000000
2014-06-07 07:48:30,0.03,1.11,0.00,31.32,35.58,37.81,9.27,38.31,1016.14,2002.96,2985.95,2941.35,3194.40,499.90,482.73,48.11,0000 0000 0000 0000 000000
2014-06-07 07:53:31,0.02,1.11,0.00,31.34,35.60,37.82,9.30,38.23,1016.13,2002.94,2985.45,2941.03,3194.02,499.80,482.76,48.15,0000 0000 0000 0000 000000
2014-06-07 07:58:32,-0.00,1.11,0.00,31.35,35.60,37.83,9.24,38.27,1016.13,2002.90,2985.04,2941.00,3194.00,499.86,482.85,48.19,0000 0000 0000 0000 000000
2014-06-07 08:03:33,-0.01,1.11,0.00,31.37,35.62,37.84,9.30,38.41,1016.13,2002.78,2985.00,2940.98,3193.92,499.99,482.79,48.23,0000 0000 0000 0000 000000
2014-06-07 08:08:35,0.00,1.11,0.00,31.38,35.62,37.85,9.32,38.47,1016.13,2002.70,2984.94,2940.84,3193.52,500.07,483.00,48.27,0000 0000 0000 0000 000000
2014-06-07 08:13:36,0.01,1.11,0.00,31.40,35.65,37.86,9.22,38.39,1016.13,2002.52,2984.46,2940.28,3193.09,499.53,482.36,48.31,0000 0000 0000 0000 000000
2014-06-07 08:18:37,-0.02,1.11,0.00,31.42,35.65,37.88,9.31,38.38,1016.13,2002.21,2984.02,2940.01,3193.00,500.15,482.97,48.36,0000 0000 0000 0000 000000
2014-06-07 08:23:38,-0.00,1.11,0.00,31.44,35.67,37.89,9.29,38.34,1016.13,2002.14,2984.00,2940.00,3192.96,499.96,482.76,48.40,0000 0000 0000 0000 000000
2014-06-07 08:28:39,0.01,1.11,0.00,31.46,35.68,37.90,9.29,38.37,1016.13,2002.08,2983.82,2939.98,3192.55,500.18,483.02,48.44,0000 0000 0000 0000 000000
2014-06-07 08:33:40,0.04,1.11,0.00,31.47,35.70,37.91,9.27,38.55,1016.13,2002.03,2983.11,2939.49,3192.07,500.23,482.79,48.48,0000 0000 0000 0000 000000
2014-06-07 08:38:41,0.04,1.12,0.00,31.48,35.70,37.92,9.34,38.52,1016.13,2002.00,2982.27,2938.95,3191.58,500.33,482.92,48.52,0000 0000 0000 0000 000000
2014-06-07 08:43:42,0.08,1.12,0.00,31.50,35.72,37.93,9.26,38.63,1016.13,2002.00,2980.84,2938.10,3190.66,499.85,482.47,48.56,0000 0000 0000 0000 000000
2014-06-07 08:48:43,0.07,1.12,0.00,31.52,35.73,37.95,9.29,38.48,1016.15,2002.00,2979.56,2937.30,3189.90,499.78,482.35,48.61,0000 0000 0000 0000 000000
2014-06-07 08:53:44,0.05,1.12,0.00,31.52,35.75,37.96,9.30,38.48,1016.15,2002.00,2978.46,2936.81,3189.09,500.24,482.83,48.65,0000 0000 0000 0000 000000
2014-06-07 08:58:45,0.03,1.13,0.00,31.54,35.76,37.98,9.27,38.34,1016.14,2002.00,2977.77,2936.10,3188.83,500.06,482.59,48.69,0000 0000 0000 0000 000000
2014-06-07 09:03:46,0.03,1.13,0.00,31.54,35.77,37.99,9.30,38.54,1016.14,2002.00,2977.02,2935.97,3188.09,499.57,482.19,48.73,0000 0000 0000 0000 000000
2014-06-07 09:08:47,0.06,1.13,0.00,31.56,35.79,38.01,9.28,38.36,1016.15,2001.98,2976.27,2935.22,3187.57,500.03,482.69,48.77,0000 0000 0000 0000 000000
2014-06-07 09:13:48,0.04,1.13,0.00,31.57,35.80,38.02,9.30,38.43,1016.13,2001.89,2975.56,2934.61,3186.80,499.93,482.48,48.81,0000 0000 0000 0000 000000
2014-06-07 09:18:49,0.05,1.13,0.00,31.58,35.82,38.02,9.23,38.33,1016.13,2001.84,2974.27,2933.91,3185.96,499.69,482.23,48.86,0000 0000 0000 0000 000000
2014-06-07 09:23:51,0.15,1.14,0.00,31.60,35.83,38.03,9.23,38.23,1016.15,2001.83,2971.65,2932.69,3184.67,499.62,482.24,48.90,0000 0000 0000 0000 000000
2014-06-07 09:28:52,0.13,1.15,0.00,31.61,35.85,38.05,9.27,38.42,1016.18,2001.58,2967.96,2930.89,3182.78,500.04,482.67,48.94,0000 0000 0000 0000 000000
2014-06-07 09:33:53,0.13,1.15,0.00,31.63,35.85,38.07,9.29,38.42,1016.30,2001.33,2964.68,2929.34,3181.13,500.19,482.67,48.98,0000 0000 0000 0000 000000
2014-06-07 09:38:55,0.09,1.16,0.00,31.65,35.87,38.08,9.28,38.47,1016.31,2001.11,2962.21,2928.05,3179.62,500.30,482.79,49.02,0000 0000 0000 0000 000000
2014-06-07 09:43:56,0.07,1.16,0.00,31.66,35.88,38.09,9.31,38.34,1016.36,2001.07,2960.85,2927.10,3178.68,500.11,482.53,49.07,0000 0000 0000 0000 000000
2014-06-07 09:48:57,0.09,1.16,0.00,31.67,35.90,38.10,9.31,38.37,1016.60,2001.02,2959.58,2926.05,3177.51,499.89,482.37,49.11,0000 0000 0000 0000 000000
2014-06-07 09:53:58,0.09,1.17,0.00,31.68,35.90,38.11,9.33,38.38,1016.61,2001.01,2958.25,2924.87,3176.28,500.30,482.92,49.15,0000 0000 0000 0000 000000
2014-06-07 09:58:59,0.10,1.17,0.00,31.70,35.92,38.12,9.29,38.40,1016.62,2001.00,2956.82,2923.70,3174.90,499.94,482.51,49.19,0000 0000 0000 0000 000000
2014-06-07 10:04:00,0.07,1.17,0.00,31.71,35.94,38.13,9.24,38.34,1016.62,2001.00,2955.64,2922.68,3173.89,499.76,482.14,49.23,0000 0000 0000 0000 000000
2014-06-07 10:09:01,0.05,1.18,0.00,31.72,35.95,38.15,9.36,38.33,1016.62,2001.00,2954.72,2921.96,3173.07,500.53,482.88,49.27,0000 0000 0000 0000 000000
2014-06-07 10:14:03,0.08,1.18,0.00,31.74,35.97,38.16,9.28,38.35,1016.62,2000.99,2953.54,2921.07,3172.08,500.12,482.59,49.32,0000 0000 0000 0000 000000
2014-06-07 10:19:04,0.08,1.18,0.00,31.76,35.99,38.18,9.29,38.21,1016.63,2000.99,2952.40,2920.13,3171.07,500.11,482.49,49.36,0000 0000 0000 0000 000000
2014-06-07 10:24:05,0.09,1.19,0.00,31.80,36.00,38.19,9.22,38.21,1016.63,2000.97,2951.11,2919.07,3169.84,499.76,481.98,49.40,0000 0000 0000 0000 000000
2014-06-07 10:29:06,0.10,1.19,0.00,31.81,36.03,38.21,9.25,38.24,1016.65,2000.91,2949.69,2917.88,3168.58,499.83,481.98,49.44,0000 0000 0000 0000 000000
2014-06-07 10:34:08,0.08,1.19,0.00,31.84,36.05,38.23,9.27,38.37,1016.77,2000.78,2948.16,2916.70,3167.31,500.10,482.47,49.48,0000 0000 0000 0000 000000
2014-06-07 10:39:09,0.06,1.20,0.00,31.86,36.06,38.25,9.29,38.34,1016.88,2000.61,2946.73,2915.62,3165.99,500.11,482.58,49.52,0000 0000 0000 0000 000000
2014-06-07 10:44:10,0.01,1.20,0.00,31.90,36.09,38.28,9.25,38.25,1016.87,2000.27,2945.86,2914.91,3165.06,499.97,482.32,49.57,0000 0000 0000 0000 000000
2014-06-07 10:49:11,0.05,1.20,0.00,31.93,36.11,38.30,9.23,38.11,1016.92,2000.17,2945.12,2914.21,3164.55,499.53,482.01,49.61,0000 0000 0000 0000 000000
2014-06-07 10:54:12,0.02,1.20,0.00,31.96,36.13,38.32,9.29,38.22,1017.05,2000.05,2944.55,2913.78,3163.92,499.87,482.28,49.65,0000 0000 0000 0000 000000
2014-06-07 10:59:14,0.05,0.76,0.00,31.99,36.16,38.35,8.05,34.08,1017.09,2000.43,3147.19,3054.95,3319.35,439.35,423.75,0.01,0000 0000 0000 0000 000002
2014-06-07 11:04:15,0.03,0.00,0.00,32.01,36.18,38.37,9.29,41.17,1017.03,2001.01,3446.81,3265.60,3552.84,500.23,482.43,0.02,0000 0000 0000 0000 000000
2014-06-07 11:09:16,0.04,0.00,0.00,32.05,36.19,38.40,9.32,41.10,1016.74,2001.00,3444.19,3264.04,3550.70,499.78,481.81,0.07,0000 0000 0000 0000 000000
2014-06-07 11:14:17,0.06,0.01,0.00,32.07,36.20,38.42,9.29,41.16,1016.80,2001.00,3441.86,3262.52,3548.56,499.93,482.02,0.11,0000 0000 0000 0000 000000
2014-06-07 11:19:19,0.09,0.01,0.00,32.06,36.23,38.44,9.24,41.12,1016.67,2000.99,3439.38,3260.67,3546.41,499.51,481.65,0.15,0000 0000 0000 0000 000000
2014-06-07 11:24:20,0.10,0.02,0.00,32.04,36.24,38.47,9.35,41.04,1016.68,2000.97,3437.48,3259.26,3544.73,500.25,482.13,0.19,0000 0000 0000 0000 000000
2014-06-07 11:29:21,0.07,0.02,0.00,32.01,36.25,38.49,9.31,40.99,1016.65,2000.89,3436.30,3258.45,3543.68,499.89,481.96,0.23,0000 0000 0000 0000 000000
2014-06-07 11:34:22,0.02,0.02,0.00,31.98,36.28,38.51,9.31,40.89,1016.64,2000.65,3435.16,3257.83,3542.85,500.09,482.12,0.27,0000 0000 0000 0000 000000
2014-06-07 11:39:24,0.02,0.02,0.00,31.97,36.28,38.52,9.31,40.94,1016.63,2000.55,3434.58,3257.17,3542.13,500.22,482.30,0.32,0000 0000 0000 0000 000000
2014-06-07 11:44:25,-0.00,0.02,0.00,31.95,36.29,38.52,9.31,40.75,1016.62,2000.27,3433.93,3256.94,3541.65,500.11,482.32,0.36,0000 0000 0000 0000 000000
2014-06-07 11:49:26,0.04,0.02,0.00,31.92,36.30,38.53,9.36,40.83,1016.62,2000.20,3433.08,3256.23,3540.96,500.34,482.38,0.40,0000 0000 0000 0000 000000
2014-06-07 11:54:27,0.02,0.02,0.00,31.91,36.30,38.54,9.29,40.88,1016.62,2000.10,3432.27,3255.97,3540.16,499.83,482.14,0.44,0000 0000 0000 0000 000000
2014-06-07 11:59:28,0.04,0.03,0.00,31.90,36.30,38.55,9.33,40.88,1016.61,2000.08,3431.57,3255.31,3539.76,500.57,482.71,0.48,0000 0000 0000 0000 000000
2014-06-07 12:04:29,0.01,0.03,0.00,31.88,36.30,38.54,9.35,41.12,1016.61,2000.04,3430.86,3254.94,3539.04,500.07,482.27,0.53,0000 0000 0000 0000 000000
2014-06-07 12:09:30,0.04,0.03,0.00,31.86,36.30,38.54,9.28,40.77,1016.57,2000.02,3430.07,3254.42,3538.66,499.71,481.85,0.57,0000 0000 0000 0000 000000
2014-06-07 12:14:31,0.03,0.03,0.00,31.85,36.30,38.53,9.30,40.80,1016.60,2000.02,3429.39,3253.96,3537.92,500.05,482.30,0.61,0000 0000 0000 0000 000000
2014-06-07 12:19:32,0.06,0.03,0.00,31.83,36.30,38.53,9.24,40.68,1016.60,2000.01,3428.11,3253.15,3536.97,499.77,482.01,0.65,0000 0000 0000 0000 000000
2014-06-07 12:24:33,0.08,0.04,0.00,31.82,36.31,38.53,9.37,40.88,1016.61,2000.01,3426.48,3252.10,3535.73,500.47,482.84,0.69,0000 0000 0000 0000 000000
2014-06-07 12:29:35,0.12,0.04,0.00,31.82,36.31,38.53,9.34,40.92,1016.62,2000.01,3424.41,3250.66,3534.24,500.57,482.87,0.73,0000 0000 0000 0000 000000
2014-06-07 12:34:36,0.31,0.05,0.00,31.82,36.30,38.53,9.29,40.72,1016.62,2000.00,3419.32,3247.22,3530.45,500.20,482.56,0.78,0000 0000 0000 0000 000000
2014-06-07 12:39:37,0.50,0.07,0.00,31.80,36.30,38.52,9.33,40.59,1016.62,2000.01,3410.58,3241.08,3523.94,499.92,482.42,0.82,0000 0000 0000 0000 000000
2014-06-07 12:44:38,0.27,0.08,0.00,31.80,36.30,38.51,9.29,40.61,1016.62,2000.00,3404.21,3236.48,3519.09,499.70,482.10,0.86,0000 0000 0000 0000 000000
2014-06-07 12:49:39,0.29,0.10,0.00,31.78,36.30,38.51,9.31,40.71,1016.62,2000.00,3399.22,3232.65,3514.93,500.11,482.49,0.90,0000 0000 0000 0000 000000
2014-06-07 12:54:40,0.34,0.11,0.00,31.77,36.30,38.51,9.33,40.84,1016.62,2000.00,3393.54,3228.09,3510.07,500.25,482.68,0.94,0000 0000 0000 0000 000000
2014-06-07 12:59:41,0.30,0.12,0.00,31.74,36.30,38.51,9.33,40.89,1016.64,2000.00,3388.21,3223.78,3505.33,500.06,482.48,0.99,0000 0000 0000 0000 000000